Flag for Belgium Weather past 2 weeks in Leuven, Belgium

Now
43 °F

Broken clouds.


Feels Like: 36 °F
Forecast: 38 / 47 °F
Wind: 14 mph from Southwest

Location: Brussels National Airport

Current Time: Dec 20, 2014 at 10:00:53 AM

Latest Report: Dec 20, 2014 at 9:20 AM


Visibility: N/A

Pressure: 30.21 "Hg

Humidity: 81%

Dew point: 37 °F

Location of LeuvenLocation

Historic Weather in Leuven — Graph

°F

Leuven temperature yesterday

Maximum temperature yesterday: 52 °F (at 12:20 AM)
Minimum temperature yesterday: 41 °F (at 10:50 PM)
Average temperature yesterday: 48 °F

Past Weeks' High & Low Weather Summary

 TemperatureHumidityPressure
High54 °F (Dec 18, 10:20 AM)100% (Dec 6, 5:50 AM)30.36 "Hg (Dec 6, 5:50 AM)
Low32 °F (Dec 6, 11:20 PM)61% (Dec 10, 4:20 PM)29.42 "Hg (Dec 12, 11:50 AM)
Average42 °F85%29.97 "Hg
* Reported Dec 5 8:20 AM — Dec 20 8:50 AM, Leuven, Weather by CustomWeather, © 2014

Note: Actual official high and low records may vary slightly from our data, if they occured in-between our weather recording intervals... More about our weather records

Advertising

Leuven weather history for previous 24 hours

 ConditionsComfort  
Time TempWeatherWind HumidityBarometerVisibility
8:50 AM
Dec 20
41 °FPassing clouds.13 mph81%30.18 "HgN/A
8:20 AM43 °FPassing clouds.16 mph76%30.21 "HgN/A
7:50 AM43 °FClear.17 mph76%30.21 "Hg10 mi
7:20 AM41 °FClear.13 mph81%30.21 "Hg10 mi
6:50 AM41 °FClear.13 mph87%30.21 "Hg10 mi
6:20 AM41 °FClear.14 mph81%30.21 "Hg10 mi
5:50 AM41 °FClear.13 mph81%30.21 "Hg10 mi
5:20 AM41 °FClear.16 mph81%30.21 "Hg10 mi
4:50 AM41 °FClear.15 mph81%30.18 "Hg10 mi
4:20 AM41 °FClear.14 mph81%30.21 "Hg10 mi
3:50 AM41 °FClear.15 mph81%30.21 "Hg10 mi
3:20 AM41 °FClear.15 mph81%30.21 "Hg10 mi
2:50 AM41 °FClear.14 mph81%30.21 "Hg10 mi
2:20 AM41 °FClear.15 mph81%30.21 "Hg10 mi
1:50 AM41 °FClear.14 mph81%30.18 "Hg10 mi
1:20 AM41 °FClear.16 mph76%30.18 "Hg10 mi
12:50 AM41 °FClear.15 mph76%30.18 "Hg10 mi
12:20 AM41 °FClear.15 mph81%30.18 "Hg10 mi
11:50 PM
Dec 19
41 °FClear.15 mph81%30.18 "Hg10 mi
11:20 PM41 °FClear.16 mph81%30.15 "Hg10 mi
10:50 PM41 °FClear.12 mph81%30.15 "Hg10 mi
10:20 PM43 °FClear.13 mph76%30.15 "Hg10 mi
9:50 PM43 °FPassing clouds.15 mph76%30.15 "HgN/A
9:20 PM43 °FPassing clouds.13 mph76%30.15 "HgN/A
8:50 PM43 °FPassing clouds.14 mph76%30.12 "HgN/A
8:20 PM43 °FPassing clouds.14 mph81%30.12 "HgN/A
7:50 PM43 °FClear.13 mph76%30.09 "Hg10 mi
7:20 PM43 °FClear.13 mph76%30.09 "Hg10 mi
6:50 PM43 °FClear.12 mph76%30.07 "Hg10 mi
6:20 PM45 °FClear.12 mph76%30.07 "Hg10 mi
5:50 PM45 °FPassing clouds.12 mphN/A30.04 "HgN/A
5:20 PM45 °FPassing clouds.9 mph81%30.04 "HgN/A
4:50 PM46 °FPartly cloudy.8 mph76%30.01 "HgN/A
4:20 PM46 °FBroken clouds.8 mph76%30.01 "HgN/A
3:50 PM46 °FBroken clouds.10 mph87%29.98 "HgN/A
3:20 PM48 °FPartly sunny.12 mph82%29.98 "HgN/A
2:50 PM46 °FScattered clouds.7 mph93%29.98 "HgN/A
2:20 PM48 °FPartly sunny.8 mph82%29.95 "HgN/A
1:50 PM48 °FBroken clouds.9 mph87%29.95 "HgN/A
1:20 PM46 °FLight rain. Broken clouds.13 mph93%29.92 "HgN/A
12:50 PM46 °FLight rain. Broken clouds.13 mph93%29.92 "Hg4 mi
12:20 PM52 °FCool.22 mph88%29.89 "Hg1 mi
11:50 AM52 °FDrizzle. Broken clouds.21 mph88%29.89 "Hg3 mi
11:20 AM52 °FLight rain. Broken clouds.22 mph88%29.89 "Hg5 mi
10:50 AM52 °FLight rain. Partly sunny.23 mph88%29.89 "Hg4 mi
10:20 AM52 °FRain. Partly sunny.23 mph88%29.86 "Hg3 mi
Weather by CustomWeather, © 2014

See weather overviewHow to use our weather pages